AirNav   Duncan Aviation - Near you to keep you flying
 
 637 users online  

TE45 Buffalo Chips Airpark
Joshua, Texas, USA

GOING TO JOSHUA?


FAA INFORMATION EFFECTIVE 01 DECEMBER 2022

Location

FAA Identifier: TE45
Lat/Long: 32-28-11.5020N 097-27-55.0720W
32-28.191700N 097-27.917867W
32.4698617,-97.4652978
(estimated)
Elevation: 960 ft. / 293 m (estimated)
Variation: 07E (1985)
From city: 4 miles NE of JOSHUA, TX
Time zone: UTC -6 (UTC -5 during Daylight Saving Time)
Zip code: 76058

Airport Operations

Airport use: Private use. Permission required prior to landing
Activation date: 03/1988
Control tower: no
ARTCC: FORT WORTH CENTER
FSS: FORT WORTH FLIGHT SERVICE STATION
Attendance: UNATNDD
Wind indicator: yes
Segmented circle: no

Airport Communications

WX AWOS-3 at CPT (7 nm S): 119.525 (817-641-4135)
WX AWOS-3PT at FWS (10 nm NE): 120.025 (817-426-4172)
WX AWOS-3PT at GDJ (18 nm W): 118.925 (817-573-7514)

Nearby radio navigation aids

VOR radial/distance  VOR name  Freq  Var
FUZr204/29.0RANGER VORTAC115.7006E
MQPr111/31.0MILLSAP VORTAC117.7009E
TTTr216/32.2MAVERICK VOR/DME113.1006E
CVEr222/37.9COWBOY VOR/DME116.2006E

Airport Services

Runway Information

Runway 17/35

Dimensions: 5400 x 100 ft. / 1646 x 30 m
Surface: turf
RUNWAY 17  RUNWAY 35
Traffic pattern: leftleft
Displaced threshold: 500 ft.500 ft.
Obstructions: 25 ft. plines, marked and lighted, 100 ft. from runway25 ft. plines, marked and lighted, 100 ft. from runway

Airport Ownership and Management from official FAA records

Ownership: Privately-owned
Owner: ALAN SPARKS
BOX 1456
JOSHUA, TX 76058
Phone 817-558-7715
Manager: ALAN SPARKS
BOX 1456
JOSHUA, TX 76058
Phone 817-558-7715

Airport Operational Statistics

Aircraft based on the field: 31
Single engine airplanes: 8
Multi engine airplanes: 2
Jet airplanes: 3
Helicopters: 18
    

Additional Remarks

FOR CD CTC REGIONAL APCH AT 972-615-2799.

Instrument Procedures

There are no published instrument procedures at TE45.

Some nearby airports with instrument procedures:

KCPT - Cleburne Regional Airport (7 nm S)
50F - Bourland Field Airport (9 nm NW)
KFWS - Fort Worth Spinks Airport (10 nm NE)
KNFW - Fort Worth Naval Air Station JRB (Carswell Field) Airport (18 nm N)
KGDJ - Granbury Regional Airport (18 nm W)
KWEA - Parker County Airport (20 nm NW)
 
Loc | Ops | Rwys | IFR | FBO | Links
Com | Nav | Svcs | Stats | Notes

City of Fort Worth
 
Area around TE45 (Buffalo Chips Airpark)
 
Road maps at: MapQuest Bing Google
 
Aerial photo
No photo
 
Sectional chart

 
Airport distance calculator
Flying to Buffalo Chips Airpark? Find the distance to fly.

From to TE45

Sunrise and sunset
Times for 06-Dec-2022
 Local
(UTC-6)
 Zulu
(UTC)
Morning civil twilight06:5212:52
Sunrise07:1913:19
Sunset17:2323:23
Evening civil twilight17:5023:50

Current date and time
Zulu (UTC)  06-Dec-2022 06:48:24
Local (UTC-6)  06-Dec-2022 00:48:24
 
METAR
KCPT 
7nm S 
060635Z AUTO 19007KT 10SM CLR 19/18 A2984 RMK A01 TSNO
KFWS 
10nm NE 
060635Z AUTO 19010KT 10SM CLR 19/16 A2983 RMK AO2 T01950162
KNFW 
18nm N 
060552Z AUTO 20013G18KT 10SM CLR 19/17 A2980 RMK AO2 SLP077 T01890167 10228 20189 51006 TSNO CHINO S VISNO S $
KGDJ 
18nm W 
AWOS-3 118.925 817-573-7514
060635Z AUTO 21011G16KT 10SM CLR 19/16 A2983 RMK AO2 T01920163
TAF
KNFW 
18nm N 
0523/0623 20012G20KT 9999 SCT120 BKN250 QNH2974INS FM060400 20010KT 9999 SCT018 BKN090 OVC200 QNH2977INS BECMG 0609/0610 19008KT 9999 SCT012 BKN018 OVC120 QNH2980INS BECMG 0617/0618 18008KT 9999 FEW012 SCT070 BKN120 QNH2988INS LAST NO AMDS 0523 NEXT 0907 T26/0523Z T17/0613Z FN20092
KGKY 
22nm NE 
060525Z 0606/0706 19011KT P6SM BKN200 TEMPO 0611/0615 BKN015 FM061700 23010KT P6SM VCSH FEW030 BKN110 FM062200 34005KT P6SM VCSH SCT025 BKN100 FM070400 01007KT P6SM -RA BKN011
NOTAMs
Click for the latest NOTAMs
NOTAMs are issued by the DoD/FAA and will open in a separate window not controlled by AirNav.

 

 
 

Would you like to see your business listed on this page?

 If your business provides an interesting product or service to pilots, flight crews, aircraft, or users of the Buffalo Chips Airpark, you should consider listing it here.  To start the listing process, click on the button below
 
Add a business
 

Other Pages about Buffalo Chips Airpark

Update a link
 
Copyright © AirNav, LLC. All rights reserved. Privacy Policy  Contact